KE8RXN Weather Reports


Display with metric or nautical units.
time (UTC)temp
F
wind
direction
speed
MPH
gust
MPH
rain 1hr
in
rain 24hr
in
rain mn
in
humidity
%
barometer
mb
20260506032039 42 35 0.0 0.0 0.00 0.00 0.00 73 1013.5
20260506031537 43 35 0.0 0.0 0.00 0.00 0.00 71 1013.7
20260506031033 43 35 0.0 0.0 0.00 0.00 0.00 71 1013.6
20260506030531 43 33 0.0 0.0 0.00 0.00 0.00 71 1013.7
20260506030028 44 35 0.0 0.0 0.00 0.00 0.00 70 1013.7
20260506025525 44 16 1.0 1.0 0.00 0.00 0.00 69 1013.4
20260506025021 44 33 0.0 0.0 0.00 0.00 0.00 68 1013.2
20260506024518 44 35 0.0 0.0 0.00 0.00 0.00 67 1013.0
20260506024015 45 37 0.0 0.0 0.00 0.00 0.00 66 1013.2
20260506023511 45 32 0.0 0.0 0.00 0.00 0.00 64 1013.3
20260506023009 45 28 0.0 0.0 0.00 0.00 0.00 63 1013.0
20260506022506 45 30 0.0 0.0 0.00 0.00 0.00 64 1013.0
20260506022003 46 30 0.0 0.0 0.00 0.00 0.00 62 1013.0
20260506021501 46 16 0.0 1.0 0.00 0.00 0.00 61 1012.9
20260506020958 46 22 1.0 1.0 0.00 0.00 0.00 61 1012.9
20260506020455 46 30 0.0 0.0 0.00 0.00 0.00 60 1012.9
20260506015952 46 27 0.0 0.0 0.00 0.00 0.00 59 1012.7
20260506015449 46 32 0.0 0.0 0.00 0.00 0.00 58 1012.7
20260506014946 47 28 0.0 0.0 0.00 0.00 0.00 58 1012.8
20260506014443 47 29 0.0 0.0 0.00 0.00 0.00 57 1012.6
20260506013939 47 18 1.0 1.0 0.00 0.00 0.00 56 1012.6
20260506013438 47 30 0.0 0.0 0.00 0.00 0.00 56 1012.6
20260506012934 48 31 0.0 0.0 0.00 0.00 0.00 55 1012.3
20260506012430 48 26 0.0 1.0 0.00 0.00 0.00 55 1012.4
20260506011927 48 0 1.0 1.0 0.00 0.00 0.00 54 1012.6
20260506011425 48 26 0.0 1.0 0.00 0.00 0.00 55 1012.3
20260506010921 48 20 0.0 1.0 0.00 0.00 0.00 55 1012.4
20260506010420 48 24 1.0 1.0 0.00 0.00 0.00 55 1012.4
20260506005916 48 29 0.0 0.0 0.00 0.00 0.00 55 1012.3
20260506005414 49 26 0.0 0.0 0.00 0.00 0.00 55 1012.3
20260506004909 49 28 0.0 1.0 0.00 0.00 0.00 54 1012.4
20260506004407 49 30 0.0 0.0 0.00 0.00 0.00 54 1012.1
20260506003903 49 27 0.0 0.0 0.00 0.00 0.00 53 1012.2
20260506003359 49 1 1.0 1.0 0.00 0.00 0.00 52 1012.1
20260506002856 50 0 1.0 1.0 0.00 0.00 0.00 51 1012.3
20260506002352 50 30 0.0 0.0 0.00 0.00 0.00 51 1012.2
20260506001848 50 334 2.0 2.0 0.00 0.00 0.00 50 1012.2
20260506001345 50 326 1.0 1.0 0.00 0.00 0.00 50 1012.2
20260506000842 50 353 1.0 1.0 0.00 0.00 0.00 50 1012.0
20260506000340 50 356 0.0 1.0 0.00 0.00 0.00 50 1012.2
20260505235836 51 23 0.0 1.0 0.00 0.00 0.00 49 1012.1
20260505235334 51 358 1.0 1.0 0.00 0.00 0.00 47 1012.1
20260505234831 51 12 1.0 1.0 0.00 0.00 0.00 48 1012.2
20260505234329 51 265 2.0 2.0 0.00 0.00 0.00 47 1012.4
20260505233825 51 216 2.0 2.0 0.00 0.00 0.00 47 1012.0
20260505233324 51 10 1.0 1.0 0.00 0.00 0.00 47 1012.0
20260505232820 51 288 1.0 2.0 0.00 0.00 0.00 46 1012.2
20260505232318 51 239 2.0 3.0 0.00 0.00 0.00 45 1012.1
20260505231814 51 273 2.0 2.0 0.00 0.00 0.00 45 1011.9
20260505231313 51 288 5.0 6.0 0.00 0.00 0.00 44 1012.1
20260505230811 51 319 1.0 1.0 0.00 0.00 0.00 45 1012.1
20260505230307 51 315 2.0 2.0 0.00 0.00 0.00 44 1012.0
20260505225803 51 317 3.0 3.0 0.00 0.00 0.00 44 1012.0
20260505225301 52 316 2.0 2.0 0.00 0.00 0.00 44 1012.1
20260505224755 52 316 3.0 5.0 0.00 0.00 0.00 44 1012.2
20260505224254 52 0 2.0 3.0 0.00 0.00 0.00 45 1012.1
20260505223751 51 229 3.0 5.0 0.00 0.00 0.00 45 1012.2
20260505223247 52 287 3.0 3.0 0.00 0.00 0.00 44 1012.0
20260505222743 52 248 3.0 3.0 0.00 0.00 0.00 45 1012.1
20260505222240 52 349 2.0 3.0 0.00 0.00 0.00 45 1012.0
20260505221737 52 246 3.0 5.0 0.00 0.00 0.00 44 1012.1
20260505221233 52 327 2.0 2.0 0.00 0.00 0.00 46 1012.1
20260505220730 52 257 1.0 1.0 0.00 0.00 0.00 45 1012.0
20260505220228 52 319 2.0 2.0 0.00 0.00 0.00 45 1012.1
20260505215726 52 291 3.0 3.0 0.00 0.00 0.00 44 1012.0
20260505215223 52 300 3.0 3.0 0.00 0.00 0.00 44 1012.0
20260505214721 52 315 3.0 3.0 0.00 0.00 0.00 44 1012.0
20260505214218 52 356 3.0 3.0 0.00 0.00 0.00 44 1012.0
20260505213716 53 236 4.0 5.0 0.00 0.00 0.00 43 1012.2
20260505213213 53 302 3.0 3.0 0.00 0.00 0.00 44 1012.1
20260505212709 53 331 4.0 6.0 0.00 0.00 0.00 44 1012.1
20260505212206 52 229 4.0 6.0 0.00 0.00 0.00 44 1011.9
20260505211703 53 284 3.0 3.0 0.00 0.00 0.00 44 1011.9
20260505211200 53 296 3.0 3.0 0.00 0.00 0.00 44 1012.2
20260505210656 54 41 1.0 2.0 0.00 0.00 0.00 44 1012.1
20260505210154 54 308 3.0 5.0 0.00 0.00 0.00 43 1012.2
20260505205651 54 329 1.0 1.0 0.00 0.00 0.00 45 1012.2
20260505205149 54 244 3.0 5.0 0.00 0.00 0.00 44 1012.0
20260505204645 54 246 7.0 10.0 0.00 0.00 0.00 43 1012.2
20260505204143 54 233 1.0 2.0 0.00 0.00 0.00 45 1012.2
20260505203640 54 15 2.0 3.0 0.00 0.00 0.00 44 1012.2
20260505203136 54 240 6.0 7.0 0.00 0.00 0.00 43 1012.2
20260505202632 53 236 2.0 2.0 0.00 0.00 0.00 44 1012.3
20260505202128 54 309 5.0 7.0 0.00 0.00 0.00 43 1012.4
20260505201620 54 303 2.0 2.0 0.00 0.00 0.00 44 1012.3
20260505201118 54 348 4.0 6.0 0.00 0.00 0.00 43 1012.4
20260505200615 54 297 2.0 3.0 0.00 0.00 0.00 43 1012.6
20260505200112 55 303 4.0 5.0 0.00 0.00 0.00 43 1012.3
20260505195608 54 283 5.0 6.0 0.00 0.00 0.00 42 1012.3
20260505195106 54 269 5.0 7.0 0.00 0.00 0.00 42 1012.1
20260505194602 55 256 4.0 5.0 0.00 0.00 0.00 41 1011.9
20260505194052 54 271 2.0 2.0 0.00 0.00 0.00 43 1012.1
20260505193550 54 283 3.0 3.0 0.00 0.00 0.00 43 1012.1
20260505193046 53 321 3.0 5.0 0.00 0.00 0.00 42 1012.1
20260505192545 54 245 5.0 7.0 0.00 0.00 0.00 41 1012.3
20260505192042 55 280 5.0 6.0 0.00 0.00 0.00 41 1012.5
20260505191540 55 329 5.0 6.0 0.00 0.00 0.00 41 1011.9
20260505191038 55 275 6.0 8.0 0.00 0.00 0.00 41 1012.0
20260505190532 54 308 3.0 5.0 0.00 0.00 0.00 42 1012.0
20260505190029 54 275 4.0 6.0 0.00 0.00 0.00 41 1011.8
20260505185526 55 290 3.0 3.0 0.00 0.00 0.00 43 1011.8
20260505185022 55 210 7.0 9.0 0.00 0.00 0.00 39 1011.8
20260505184519 54 7 4.0 6.0 0.00 0.00 0.00 41 1011.6
20260505184016 53 261 3.0 5.0 0.00 0.00 0.00 41 1011.8
20260505183513 53 259 3.0 3.0 0.00 0.00 0.00 41 1011.9
20260505183010 53 290 6.0 8.0 0.00 0.00 0.00 41 1011.6
20260505182506 53 298 4.0 5.0 0.00 0.00 0.00 41 1012.0
20260505182003 54 2 1.0 2.0 0.00 0.00 0.00 42 1011.6
20260505181500 54 215 7.0 11.0 0.00 0.00 0.00 40 1012.0
20260505180956 54 270 3.0 5.0 0.00 0.00 0.00 41 1011.9
20260505180452 55 248 3.0 3.0 0.00 0.00 0.00 41 1011.7
20260505175950 54 258 4.0 6.0 0.00 0.00 0.00 41 1011.7
20260505175445 55 263 6.0 9.0 0.00 0.00 0.00 38 1011.6
20260505174942 55 222 5.0 7.0 0.00 0.00 0.00 38 1011.6
20260505174439 55 231 5.0 8.0 0.00 0.00 0.00 39 1011.3
20260505173935 54 313 2.0 2.0 0.00 0.00 0.00 40 1011.2
20260505173432 55 266 5.0 6.0 0.00 0.00 0.00 35 1011.0
20260505172929 55 293 6.0 8.0 0.00 0.00 0.00 36 1011.0
20260505172428 54 285 3.0 5.0 0.00 0.00 0.00 38 1011.0
20260505171926 55 277 2.0 3.0 0.00 0.00 0.00 38 1011.0
20260505171424 55 245 3.0 5.0 0.00 0.00 0.00 37 1011.0
20260505170920 55 237 7.0 10.0 0.00 0.00 0.00 36 1010.9
20260505170417 54 225 6.0 8.0 0.00 0.00 0.00 36 1011.0
20260505165912 54 308 2.0 2.0 0.00 0.00 0.00 35 1010.8
20260505165409 55 295 3.0 3.0 0.00 0.00 0.00 36 1010.9
20260505164904 55 307 3.0 3.0 0.00 0.00 0.00 35 1010.9
20260505164401 55 260 1.0 2.0 0.00 0.00 0.00 36 1011.0
20260505163859 55 299 2.0 2.0 0.00 0.00 0.00 36 1010.9
20260505163358 56 302 3.0 3.0 0.00 0.00 0.00 36 1010.9
20260505162856 55 332 1.0 2.0 0.00 0.00 0.00 37 1010.7
20260505162352 54 274 2.0 3.0 0.00 0.00 0.00 35 1011.0
20260505161849 54 344 5.0 7.0 0.00 0.00 0.00 35 1011.0
20260505161346 54 326 1.0 2.0 0.00 0.00 0.00 38 1010.7
20260505160843 54 314 3.0 3.0 0.00 0.00 0.00 37 1010.9
20260505160341 54 324 2.0 2.0 0.00 0.00 0.00 36 1011.0
20260505153320 53 276 4.0 6.0 0.00 0.00 0.00 37 1011.1
20260505152817 53 284 3.0 3.0 0.00 0.00 0.00 37 1011.2
20260505152314 54 255 3.0 5.0 0.00 0.00 0.00 39 1011.2
20260505151808 53 289 3.0 3.0 0.00 0.00 0.00 40 1011.1
20260505151305 53 257 2.0 2.0 0.00 0.00 0.00 41 1011.3
20260505150802 52 261 4.0 6.0 0.00 0.00 0.00 41 1011.3
20260505150259 52 305 1.0 2.0 0.00 0.00 0.00 44 1011.2
20260505140224 49 350 1.0 2.0 0.00 0.00 0.00 56 1010.9
20260505130148 48 305 3.0 3.0 0.00 0.00 0.00 71 1010.5
20260505124631 48 261 1.0 2.0 0.00 0.00 0.00 76 1010.2
20260505124128 48 15 1.0 1.0 0.00 0.00 0.00 76 1010.0
20260505123624 48 357 1.0 2.0 0.00 0.00 0.00 77 1010.0
20260505123121 48 13 1.0 2.0 0.00 0.00 0.00 77 1010.0
20260505122618 48 299 3.0 3.0 0.00 0.00 0.00 77 1009.3
20260505122115 48 332 3.0 3.0 0.00 0.00 0.00 77 1009.1
20260505121611 48 8 1.0 1.0 0.00 0.00 0.00 77 1009.0
20260505121108 48 319 2.0 3.0 0.00 0.00 0.00 77 1008.9
20260505120604 48 308 2.0 2.0 0.00 0.00 0.00 76 1009.0
20260505120100 48 343 2.0 2.0 0.00 0.00 0.00 76 1009.0
20260505115554 48 322 2.0 2.0 0.00 0.00 0.00 75 1008.7
20260505115051 48 5 1.0 1.0 0.00 0.00 0.00 75 1009.0
20260505114543 48 344 3.0 3.0 0.00 0.00 0.00 76 1009.0
20260505114039 48 271 3.0 3.0 0.00 0.00 0.00 76 1008.8
20260505113536 48 298 2.0 2.0 0.00 0.00 0.00 78 1008.8
20260505113032 48 6 2.0 2.0 0.00 0.00 0.00 79 1008.8
20260505112528 48 340 2.0 2.0 0.00 0.00 0.00 79 1008.5
20260505112027 48 354 1.0 1.0 0.00 0.00 0.00 79 1008.2
20260505111526 48 355 1.0 1.0 0.00 0.00 0.00 78 1008.2
20260505111022 48 313 1.0 2.0 0.00 0.00 0.00 78 1008.2
20260505110520 48 2 1.0 1.0 0.00 0.00 0.00 78 1008.0
20260505101951 48 353 1.0 1.0 0.00 0.00 0.00 78 1007.2
20260505101444 48 356 1.0 1.0 0.00 0.00 0.00 77 1007.2
20260505100940 48 267 2.0 2.0 0.00 0.00 0.00 76 1007.3
20260505100438 48 13 1.0 1.0 0.00 0.00 0.00 75 1007.0
20260505095933 48 299 2.0 2.0 0.00 0.00 0.00 73 1007.3
20260505095431 49 301 2.0 2.0 0.00 0.00 0.00 72 1006.8
20260505094927 49 313 1.0 2.0 0.00 0.00 0.00 71 1006.6
20260505094424 49 349 1.0 1.0 0.00 0.00 0.00 71 1006.4
20260505093920 50 14 1.0 1.0 0.00 0.00 0.00 70 1006.2
20260505093417 50 309 2.0 2.0 0.00 0.00 0.00 69 1006.3
20260505092914 50 18 0.0 1.0 0.00 0.00 0.00 68 1006.1
20260505092412 51 321 2.0 3.0 0.00 0.00 0.00 66 1006.0
20260505091909 51 16 1.0 1.0 0.00 0.00 0.00 65 1006.1
20260505091406 51 280 2.0 2.0 0.00 0.00 0.00 64 1005.9
20260505090904 51 335 1.0 1.0 0.00 0.00 0.00 64 1005.9
20260505090403 51 263 2.0 3.0 0.00 0.00 0.00 63 1005.6
20260505085859 52 304 2.0 2.0 0.00 0.00 0.00 62 1005.2
20260505085357 52 338 1.0 1.0 0.00 0.00 0.00 61 1005.1
20260505084855 52 329 1.0 1.0 0.00 0.00 0.00 61 1005.0
20260505084353 52 322 1.0 1.0 0.00 0.00 0.00 61 1005.1
20260505083850 53 219 2.0 2.0 0.00 0.00 0.00 59 1004.9
20260505083348 53 299 1.0 2.0 0.00 0.00 0.00 61 1005.3
20260505082844 53 248 2.0 2.0 0.00 0.00 0.00 60 1005.0
20260505082340 53 1 1.0 1.0 0.00 0.00 0.00 60 1005.1
20260505081837 53 209 2.0 2.0 0.00 0.00 0.00 59 1004.7
20260505081333 53 11 1.0 1.0 0.00 0.00 0.00 59 1004.6
20260505080830 53 16 1.0 1.0 0.00 0.00 0.00 59 1004.6
20260505080326 53 351 1.0 1.0 0.00 0.00 0.00 59 1004.7
20260505075822 54 18 0.0 0.0 0.00 0.00 0.00 61 1004.6
20260505075319 54 269 1.0 2.0 0.00 0.00 0.00 60 1004.5
20260505074816 54 224 2.0 2.0 0.00 0.00 0.00 61 1004.5
20260505074314 54 347 1.0 1.0 0.00 0.00 0.00 63 1004.3
20260505073811 54 328 2.0 2.0 0.00 0.00 0.00 64 1004.4
20260505073309 54 343 1.0 1.0 0.00 0.00 0.00 65 1004.1
20260505072805 54 256 3.0 3.0 0.00 0.00 0.00 66 1004.3
20260505072301 54 237 2.0 3.0 0.00 0.00 0.00 66 1004.5
20260505071757 54 321 2.0 2.0 0.00 0.00 0.00 66 1004.2
20260505071254 54 233 5.0 6.0 0.00 0.00 0.00 70 1004.3
20260505070752 54 335 3.0 3.0 0.00 0.00 0.00 74 1004.4
20260505070248 54 341 2.0 2.0 0.00 0.00 0.00 76 1004.5
20260505065743 54 278 2.0 2.0 0.00 0.00 0.00 77 1004.5
20260505065241 54 255 3.0 3.0 0.00 0.00 0.00 78 1004.4
20260505064738 54 331 1.0 1.0 0.00 0.00 0.00 79 1004.3
20260505064235 54 189 3.0 3.0 0.00 0.00 0.00 79 1004.1
20260505063733 54 301 1.0 1.0 0.00 0.00 0.00 80 1004.1
20260505063229 54 231 1.0 2.0 0.00 0.00 0.00 80 1004.0
20260505062725 54 237 2.0 2.0 0.00 0.00 0.00 79 1004.0
20260505062223 54 233 3.0 3.0 0.00 0.00 0.00 81 1004.0
20260505061720 54 265 2.0 2.0 0.00 0.00 0.00 82 1003.9
20260505061218 54 21 0.0 1.0 0.00 0.00 0.00 82 1003.6
20260505060715 55 270 2.0 2.0 0.00 0.00 0.00 83 1004.0
20260505060212 55 211 5.0 6.0 0.00 0.00 0.00 83 1004.2
20260505055707 55 202 1.0 2.0 0.00 0.00 0.00 82 1003.9
20260505055204 55 246 1.0 1.0 0.00 0.00 0.00 83 1003.8
20260505054701 55 230 2.0 3.0 0.00 0.00 0.00 83 1003.9
20260505054159 55 225 2.0 2.0 0.00 0.00 0.00 82 1003.8
20260505053656 55 237 3.0 3.0 0.00 0.00 0.00 82 1003.8
20260505053153 56 217 3.0 3.0 0.00 0.00 0.00 81 1003.6
20260505052650 56 217 3.0 3.0 0.00 0.00 0.00 81 1003.6
20260505052147 56 28 1.0 1.0 0.00 0.00 0.00 81 1003.4
20260505051644 56 220 3.0 3.0 0.00 0.00 0.00 80 1003.4
20260505051142 57 81 1.0 1.0 0.00 0.00 0.00 80 1003.6
20260505050639 57 271 1.0 2.0 0.00 0.00 0.00 80 1003.4
20260505050138 57 270 2.0 3.0 0.00 0.00 0.00 79 1003.5
20260505041607 58 236 4.0 5.0 0.00 0.00 0.00 77 1003.2
20260505041105 59 247 3.0 5.0 0.00 0.00 0.00 77 1003.1
20260505040602 59 244 2.0 3.0 0.00 0.00 0.00 76 1003.1
20260505040059 60 270 3.0 5.0 0.00 0.01 0.01 75 1003.2
20260505035555 60 295 6.0 7.0 0.00 0.01 0.01 75 1003.2
20260505035052 61 271 3.0 5.0 0.00 0.01 0.01 74 1003.2
20260505034548 62 297 4.0 6.0 0.00 0.01 0.01 73 1003.3
20260505034045 62 256 3.0 3.0 0.00 0.01 0.01 73 1003.1
20260505033542 62 335 4.0 6.0 0.00 0.01 0.01 73 1003.1
20260505033040 62 302 2.0 2.0 0.00 0.01 0.01 72 1003.1
20260505032538 63 214 4.0 5.0 0.00 0.01 0.01 71 1003.0